Weather History for KBKD - November, 2013

Change the Weather History Date:

Wednesday, November 13, 2013

  Actual Average (KABI) Record (KABI)
Temperature  
Mean Temperature 38 °F 56 °F  
Max Temperature 57 °F 67 °F 85 °F (1944)
Min Temperature 20 °F 44 °F 21 °F (1986)
Degree Days  
Heating Degree Days 26 10  
Month to date heating degree days 102  
Since 1 July heating degree days 206  
Cooling Degree Days 0 1  
Month to date cooling degree days 15  
Year to date cooling degree days 2404  
Moisture  
Dew Point 17 °F    
Average Humidity 47    
Maximum Humidity 81    
Minimum Humidity 15    
Precipitation  
Precipitation 0.00 in 0.05 in 1.44 in (1934)
Month to date precipitation 0.73  
Year to date precipitation 22.91  
Sea Level Pressure  
Sea Level Pressure 30.54 in    
Wind  
Wind Speed 3 mph (SSE)    
Max Wind Speed 13 mph    
Max Gust Speed 18 mph    
Visibility 10 miles    
Events      
T = Trace of Precipitation, MM = Missing Value Source: NWS Daily Summary

Daily Weather History Graph

Daily Weather History Graph

Search for Another Location

Airport or City:

Trip Planner

Search our weather history database for the weather conditions in past years. The results will help you decide how hot, cold, wet, or windy it might be!

Date:

Astronomy

Nov. 13, 2013 Rise Set
Actual Time 7:04 AM CST 5:35 PM CST
Civil Twilight 6:37 AM CST 6:01 PM CST
Nautical Twilight 6:08 AM CST 6:31 PM CST
Astronomical Twilight 5:39 AM CST 7:00 PM CST
Moon 3:13 PM CST (11/13) 3:10 AM CST (11/13)
Length of Visible Light 11h 23m
Length of Day
10h 31m
Waxing Gibbous, 85% of the Moon is Illuminated
Nov 13
Waxing Gibbous
Nov 17
Full
Nov 25
Last Quarter
Dec 2
New
Dec 9
First Quarter

Hourly Weather History & Observations

Time (CST) Temp. Windchill Dew Point Humidity Pressure Visibility Wind Dir Wind Speed Gust Speed Precip Events Conditions
12:15 AM 32.5 °F 29.3 °F 14.4 °F 47% 30.70 in 10.0 mi NNE 3.5 mph - N/A   Clear
12:35 AM 29.5 °F 25.9 °F 16.5 °F 59% 30.70 in 10.0 mi NNE 3.5 mph - N/A   Clear
12:55 AM 30.7 °F 27.3 °F 16.0 °F 54% 30.69 in 10.0 mi North 3.5 mph - N/A   Clear
1:15 AM 28.4 °F - 16.5 °F 61% 30.69 in 10.0 mi Calm Calm - N/A   Clear
1:35 AM 29.1 °F - 17.2 °F 61% 30.69 in 10.0 mi Calm Calm - N/A   Clear
1:55 AM 29.3 °F 25.6 °F 16.5 °F 59% 30.68 in 10.0 mi North 3.5 mph - N/A   Clear
2:15 AM 28.4 °F 24.6 °F 16.0 °F 60% 30.69 in 10.0 mi NNE 3.5 mph - N/A   Clear
2:35 AM 27.1 °F - 16.7 °F 65% 30.69 in 10.0 mi Calm Calm - N/A   Clear
2:55 AM 26.1 °F - 17.4 °F 70% 30.69 in 10.0 mi Calm Calm - N/A   Clear
3:15 AM 27.7 °F - 16.5 °F 63% 30.69 in 10.0 mi Calm Calm - N/A   Clear
3:35 AM 25.2 °F - 16.7 °F 70% 30.69 in 10.0 mi Calm Calm - N/A   Clear
3:55 AM 26.1 °F - 17.2 °F 69% 30.69 in 10.0 mi Calm Calm - N/A   Clear
4:15 AM 24.3 °F - 17.2 °F 75% 30.68 in 10.0 mi Calm Calm - N/A   Clear
4:35 AM 24.4 °F - 16.7 °F 72% 30.68 in 10.0 mi Calm Calm - N/A   Clear
4:55 AM 22.8 °F - 15.8 °F 74% 30.67 in 10.0 mi Calm Calm - N/A   Clear
5:15 AM 23.0 °F - 16.3 °F 76% 30.67 in 10.0 mi Calm Calm - N/A   Clear
5:35 AM 22.6 °F - 16.3 °F 77% 30.66 in 10.0 mi Calm Calm - N/A   Clear
5:55 AM 21.9 °F - 15.8 °F 77% 30.66 in 10.0 mi Calm Calm - N/A   Clear
6:15 AM 22.8 °F - 15.8 °F 74% 30.66 in 10.0 mi Calm Calm - N/A   Clear
6:35 AM 22.8 °F - 16.2 °F 76% 30.66 in 10.0 mi Calm Calm - N/A   Clear
6:55 AM 21.2 °F - 15.3 °F 78% 30.65 in 10.0 mi Calm Calm - N/A   Clear
7:15 AM 20.3 °F - 15.4 °F 81% 30.65 in 10.0 mi Calm Calm - N/A   Clear
7:35 AM 22.1 °F 15.9 °F 16.9 °F 80% 30.65 in 10.0 mi SSE 4.6 mph - N/A   Clear
7:55 AM 24.8 °F - 18.3 °F 76% 30.65 in 10.0 mi Calm Calm - N/A   Clear
8:15 AM 26.8 °F - 20.3 °F 77% 30.66 in 10.0 mi Calm Calm - N/A   Clear
8:35 AM 29.5 °F - 21.2 °F 71% 30.65 in 10.0 mi Calm Calm - N/A   Clear
8:55 AM 31.5 °F - 21.2 °F 66% 30.66 in 10.0 mi Calm Calm - N/A   Clear
9:15 AM 32.7 °F 29.6 °F 20.3 °F 60% 30.66 in 10.0 mi West 3.5 mph - N/A   Clear
9:35 AM 35.1 °F - 19.9 °F 54% 30.65 in 10.0 mi Calm Calm - N/A   Clear
9:55 AM 38.1 °F 35.7 °F 19.4 °F 47% 30.64 in 10.0 mi SW 3.5 mph - N/A   Clear
10:15 AM 41.5 °F - 16.9 °F 37% 30.64 in 10.0 mi Calm Calm - N/A   Clear
10:35 AM 42.3 °F - 18.0 °F 38% 30.62 in 10.0 mi Calm Calm - N/A   Clear
10:55 AM 43.9 °F 40.5 °F 18.3 °F 36% 30.62 in 10.0 mi SSW 5.8 mph - N/A   Clear
11:15 AM 45.0 °F 41.8 °F 18.7 °F 35% 30.61 in 10.0 mi SSW 5.8 mph - N/A   Clear
11:35 AM 46.8 °F - 18.0 °F 32% 30.59 in 10.0 mi SSW 6.9 mph - N/A   Clear
11:55 AM 48.6 °F - 16.3 °F 28% 30.58 in 10.0 mi SW 4.6 mph - N/A   Clear
12:15 PM 50.4 °F - 16.3 °F 26% 30.56 in 10.0 mi SSW 3.5 mph - N/A   Clear
12:35 PM 51.3 °F - 14.2 °F 23% 30.54 in 10.0 mi Calm Calm - N/A   Clear
12:55 PM 51.6 °F - 14.9 °F 23% 30.52 in 10.0 mi Calm Calm - N/A   Clear
1:15 PM 53.2 °F - 13.5 °F 21% 30.51 in 10.0 mi West 3.5 mph - N/A   Clear
1:35 PM 53.6 °F - 12.6 °F 20% 30.50 in 10.0 mi WSW 3.5 mph - N/A   Clear
1:55 PM 54.1 °F - 13.3 °F 20% 30.48 in 10.0 mi Calm Calm - N/A   Clear
2:15 PM 55.6 °F - 12.0 °F 18% 30.47 in 10.0 mi WSW 3.5 mph - N/A   Clear
2:35 PM 55.4 °F - 12.0 °F 18% 30.46 in 10.0 mi Calm Calm - N/A   Clear
2:55 PM 56.5 °F - 11.7 °F 17% 30.45 in 10.0 mi SSE 3.5 mph - N/A   Clear
3:15 PM 56.8 °F - 10.9 °F 16% 30.44 in 10.0 mi Calm Calm - N/A   Clear
3:35 PM 57.2 °F - 10.6 °F 16% 30.43 in 10.0 mi South 3.5 mph - N/A   Clear
3:55 PM 57.4 °F - 10.4 °F 16% 30.42 in 10.0 mi SSW 6.9 mph - N/A   Clear
4:15 PM 57.2 °F - 10.2 °F 16% 30.41 in 10.0 mi SE 4.6 mph - N/A   Clear
4:35 PM 56.7 °F - 9.7 °F 15% 30.41 in 10.0 mi SE 4.6 mph - N/A   Clear
4:55 PM 55.9 °F - 9.9 °F 16% 30.40 in 10.0 mi SSE 4.6 mph - N/A   Clear
5:15 PM 54.7 °F - 10.9 °F 18% 30.39 in 10.0 mi SSE 5.8 mph - N/A   Clear
5:35 PM 52.9 °F - 11.5 °F 19% 30.38 in 10.0 mi SE 5.8 mph - N/A   Clear
5:55 PM 50.7 °F - 12.7 °F 22% 30.38 in 10.0 mi SE 8.1 mph - N/A   Clear
6:15 PM 48.9 °F - 15.1 °F 26% 30.38 in 10.0 mi SSE 8.1 mph - N/A   Clear
6:35 PM 47.3 °F - 16.2 °F 29% 30.39 in 10.0 mi SSE 8.1 mph - N/A   Clear
6:55 PM 46.2 °F 41.7 °F 17.4 °F 32% 30.39 in 10.0 mi SSE 9.2 mph - N/A   Clear
7:15 PM 45.5 °F 40.3 °F 18.5 °F 34% 30.39 in 10.0 mi SSE 10.4 mph - N/A   Clear
7:35 PM 44.6 °F 39.7 °F 19.4 °F 37% 30.39 in 10.0 mi SSE 9.2 mph - N/A   Clear
7:55 PM 43.7 °F 38.6 °F 19.8 °F 38% 30.39 in 10.0 mi SSE 9.2 mph - N/A   Clear
8:15 PM 42.8 °F 37.5 °F 20.7 °F 41% 30.39 in 10.0 mi SSE 9.2 mph - N/A   Clear
8:35 PM 42.3 °F 36.8 °F 21.7 °F 44% 30.38 in 10.0 mi SSE 9.2 mph - N/A   Clear
8:55 PM 41.9 °F 36.3 °F 22.1 °F 45% 30.37 in 10.0 mi SSE 9.2 mph - N/A   Clear
9:15 PM 41.9 °F 36.3 °F 22.6 °F 46% 30.37 in 10.0 mi SSE 9.2 mph - N/A   Clear
9:35 PM 41.0 °F 34.3 °F 23.5 °F 50% 30.37 in 10.0 mi SSE 11.5 mph - N/A   Clear
9:55 PM 41.2 °F 35.0 °F 24.4 °F 51% 30.36 in 10.0 mi SSE 10.4 mph - N/A   Clear
10:15 PM 41.0 °F 34.7 °F 24.8 °F 53% 30.36 in 10.0 mi SSE 10.4 mph - N/A   Clear
10:35 PM 40.5 °F 33.6 °F 24.8 °F 54% 30.35 in 10.0 mi SSE 11.5 mph - N/A   Clear
10:55 PM 41.0 °F 34.3 °F 24.8 °F 53% 30.35 in 10.0 mi SSE 11.5 mph - N/A   Clear
11:15 PM 41.0 °F 34.3 °F 25.5 °F 54% 30.35 in 10.0 mi SSE 11.5 mph - N/A   Clear
11:35 PM 40.6 °F 33.4 °F 25.3 °F 54% 30.35 in 10.0 mi SSE 12.7 mph 18.4 mph N/A   Clear
11:55 PM 40.1 °F 34.7 °F 25.3 °F 56% 30.34 in 10.0 mi South 8.1 mph 17.3 mph N/A   Clear